Effective Sunday, March 17, 2024, the National Weather Service National Data Buoy Center will discontinue its Dial-A-Buoy Interactive Voice Response system. For more information, see Service Change Notice 24-06 (PDF).

Station NKTA2 - 9455760 - Nikiski, AK Image indicating link to RSS feed of recent meteorological observations for station NKTA2


Conditions at NKTA2 as of
(2:00 am AKST)
1100 GMT on 03/03/2024:
     

Click on the graph icon in the table below to see a time series plot of the last five days of that observation.

5-day plot - Wind Direction Wind Direction (WDIR): E ( 100 deg true )
5-day plot - Wind Speed Wind Speed (WSPD): 1.9 kts
5-day plot - Wind Gust Wind Gust (GST): 2.9 kts
5-day plot - Atmospheric Pressure Atmospheric Pressure (PRES):30.06 in
5-day plot - Pressure Tendency Pressure Tendency (PTDY):+0.01 in ( Rising )
5-day plot - Water Temperature Water Temperature (WTMP): 29.1 °F
5-day plot - Wind Speed at 10 Meters Wind Speed at 10 meters (WSPD10M): 1.9 kts
5-day plot - Wind Speed at 20 Meters Wind Speed at 20 meters (WSPD20M): 1.9 kts
5-day plot -  Wind Speed, Wind Gust and Atmospheric Pressure Combined plot of Wind Speed, Gust, and Air Pressure
NOS Water Level Observation Network Water Level
Previous observations
TIME
(AKST)
5-day plot - Wind Direction
WDIR
 
5-day plot - Wind Speed
WSPD
kts
5-day plot - Wind Gust
GST
kts
5-day plot - Wave Height
WVHT
ft
5-day plot - Dominant Wave Period
DPD
sec
5-day plot - Average Wave Period
APD
sec
5-day plot - Mean Wave Direction
MWD
 
5-day plot - Atmospheric Pressure
PRES
in
5-day plot - Pressure Tendency
PTDY
in
5-day plot - Air Temperature
ATMP
°F
5-day plot - Water Temperature
WTMP
°F
5-day plot - Dew Point
DEWP
°F
5-day plot - Salinity
SAL
psu
5-day plot - Visibility
VIS
nmi
5-day plot - Tide (above MLLW)
TIDE
ft
2024-03-03 01:54 am E 1.9 2.9----30.05-- 29.1----
2024-03-03 01:48 amESE 4.1 5.1----30.06- 14.0 29.1----
2024-03-03 01:42 am E 4.1 5.1----30.06- 13.5 29.1----
2024-03-03 01:36 amESE 4.1 5.1----30.05- 15.4 29.1----
2024-03-03 01:30 amESE 2.9 6.0----30.05- 14.5 29.1----
2024-03-03 01:24 amSSE 6.0 7.0----30.05- 17.1 29.1----
2024-03-03 01:18 amSSE 4.1 4.1----30.06- 16.3 29.1----
2024-03-03 01:12 amESE 1.9 2.9----30.05- 17.6 29.1----
2024-03-03 01:06 amENE 1.9 5.1----30.05- 16.3 29.1----
2024-03-03 01:00 am NE 4.1 5.1----30.04+0.02 14.4 29.1----
2024-03-03 12:54 am NE 4.1 7.0----30.05- 16.7 29.1----
2024-03-03 12:48 am NE 5.1 7.0----30.05- 16.5 29.1----
2024-03-03 12:42 amENE 4.1 6.0----30.05- 16.0 29.1----
2024-03-03 12:36 amENE 5.1 5.1----30.05- 16.2 29.1----
2024-03-03 12:30 am E 5.1 5.1----30.05- 16.5 29.1----
2024-03-03 12:24 am E 2.9 6.0----30.05- 16.5 29.1----
2024-03-03 12:18 am E 5.1 5.1----30.05- 17.1 29.1----
2024-03-03 12:12 am NE 5.1 5.1----30.05- 17.6 29.1----
2024-03-03 12:06 am NE 4.1 5.1----30.05- 18.0 29.1----
2024-03-03 12:00 am NE 5.1 8.0----30.05+0.02 18.3 29.1----
2024-03-02 11:54 pm NE 4.1 6.0----30.05- 17.6 29.1----
2024-03-02 11:48 pm NE 4.1 5.1----30.05- 18.1 29.1----
2024-03-02 11:42 pmENE 4.1 5.1----30.05- 18.0 29.1----
2024-03-02 11:36 pmENE 4.1 5.1----30.05- 18.3 29.1----
2024-03-02 11:30 pmENE 4.1 4.1----30.05- 18.9 29.1----
2024-03-02 11:24 pmENE 2.9 4.1----30.05- 19.0 29.1----
2024-03-02 11:18 pmENE 1.9 5.1----30.05- 19.8 29.1----
2024-03-02 11:12 pm NE 4.1 6.0----30.04- 20.1 29.1----
2024-03-02 11:06 pm NE 5.1 7.0----30.04- 20.7 29.1----
2024-03-02 11:00 pmNNE 5.1 8.0----30.04+0.03 20.8 29.1----
2024-03-02 10:54 pmNNE 6.0 8.0----30.04- 21.0 29.1----
2024-03-02 10:48 pmNNE 4.1 8.0----30.04- 21.0 29.1----
2024-03-02 10:42 pmNNE 6.0 8.9----30.03- 21.0 29.1----
2024-03-02 10:36 pmNNE 5.1 8.0----30.03- 21.4 29.1----
2024-03-02 10:30 pmNNE 5.1 8.0----30.03- 21.4 29.1----
2024-03-02 10:24 pmNNE 7.0 9.9----30.03- 21.2 29.1----
2024-03-02 10:18 pmNNE 6.0 8.0----30.03- 21.4 29.1----
2024-03-02 10:12 pmNNE 5.1 8.0----30.03- 21.2 29.1----
2024-03-02 10:06 pmNNE 6.0 8.0----30.03- 21.0 29.1----
2024-03-02 10:00 pmNNE 7.0 8.9----30.03+0.01 21.2 29.1----
2024-03-02 09:54 pmNNE 6.0 8.9----30.03- 21.2 29.1----
2024-03-02 09:48 pmNNE 7.0 8.9----30.03- 21.2 29.1----
2024-03-02 09:42 pmNNE 5.1 11.1----30.03- 21.4 29.3----
2024-03-02 09:36 pmNNE 7.0 9.9----30.03- 21.4 29.3----
2024-03-02 09:30 pmNNE 8.9 11.1----30.03- 21.4 29.3----
2024-03-02 09:24 pmNNE 7.0 9.9----30.03- 21.6 29.3----
2024-03-02 09:18 pmNNE 7.0 11.1----30.03- 21.4 29.3----
2024-03-02 09:12 pmNNE 8.0 9.9----30.02- 21.4 29.3----
2024-03-02 09:06 pmNNE 6.0 7.0----30.03- 21.6 29.3----
2024-03-02 09:00 pm N 4.1 6.0----30.03+0.03 21.7 29.3----
2024-03-02 08:54 pmNNE 4.1 8.0----30.03- 21.2 29.3----
2024-03-02 08:48 pmNNE 6.0 7.0----30.02- 21.6 29.3----
2024-03-02 08:42 pmNNE 4.1 5.1----30.02- 21.6 29.3----
2024-03-02 08:36 pmNNE 4.1 7.0----30.02- 21.4 29.3----
2024-03-02 08:30 pmNNE 4.1 11.1----30.02- 21.6 29.3----
2024-03-02 08:24 pmNNE 7.0 8.9----30.02- 21.6 29.3----
2024-03-02 08:18 pmNNE 7.0 8.9----30.01- 21.6 29.3----
2024-03-02 08:12 pmNNE 6.0 8.0----30.01- 21.6 29.3----
2024-03-02 08:06 pmNNE 6.0 9.9----30.01- 21.6 29.3----
2024-03-02 08:00 pm NE 7.0 9.9----30.01+0.01 21.6 29.3----
2024-03-02 07:54 pm NE 6.0 8.9----30.01- 21.6 29.3----
2024-03-02 07:48 pm NE 6.0 8.9----30.01- 21.7 29.3----
2024-03-02 07:42 pm NE 6.0 11.1----30.01- 21.6 29.3----
2024-03-02 07:36 pm NE 8.0 12.0----30.01- 21.7 29.3----
2024-03-02 07:30 pm NE 7.0 8.9----30.01- 21.6 29.3----
2024-03-02 07:24 pmENE 7.0 9.9----30.01- 21.6 29.3----
2024-03-02 07:18 pm NE 7.0 12.0----30.01- 21.4 29.3----
2024-03-02 07:12 pm NE 7.0 8.0----30.01- 21.2 29.3----
2024-03-02 07:06 pm NE 4.1 6.0----30.01- 21.6 29.3----
2024-03-02 07:00 pmNNE 4.1 8.0----30.01+0.00 21.6 29.3----
2024-03-02 06:54 pm NE 6.0 8.9----30.01- 21.6 29.3----
2024-03-02 06:48 pm NE 8.0 9.9----30.01- 21.7 29.3----
2024-03-02 06:42 pmENE 5.1 8.9----30.01- 21.7 29.3----
2024-03-02 06:36 pmENE 5.1 6.0----30.01- 21.7 29.3----
2024-03-02 06:30 pmENE 4.1 6.0----30.01- 22.1 29.3----
2024-03-02 06:24 pm NE 1.9 6.0----30.02- 22.6 29.3----
2024-03-02 06:18 pmENE 4.1 7.0----30.01- 22.3 29.3----
2024-03-02 06:12 pmENE 5.1 8.9----30.01- 22.3 29.3----
2024-03-02 06:06 pm NE 8.0 13.0----30.00- 22.5 29.3----
2024-03-02 06:00 pm NE 9.9 14.0----30.00-0.02 22.6 29.3----
2024-03-02 05:54 pm NE 11.1 14.0----30.00- 22.8 29.3----
2024-03-02 05:48 pm NE 9.9 14.0----30.00- 23.0 29.3----
2024-03-02 05:42 pmENE 6.0 8.0----30.01- 22.8 29.3----
2024-03-02 05:36 pmENE 6.0 8.9----30.01- 23.0 29.3----
2024-03-02 05:30 pm NE 6.0 9.9----30.01- 23.2 29.3----
2024-03-02 05:24 pm NE 6.0 11.1----30.01- 23.4 29.3----
2024-03-02 05:18 pm NE 7.0 11.1----30.01- 23.4 29.3----
2024-03-02 05:12 pm NE 11.1 17.1----30.01- 23.4 29.3----
2024-03-02 05:06 pm NE 9.9 15.9----30.00- 23.4 29.3----
2024-03-02 05:00 pm NE 11.1 15.9----30.00-0.02 23.5 29.3----
2024-03-02 04:54 pm NE 9.9 15.0----30.01- 23.4 29.3----
2024-03-02 04:48 pm NE 8.9 13.0----30.01- 23.4 29.3----
2024-03-02 04:42 pm NE 7.0 12.0----30.01- 23.4 29.3----
2024-03-02 04:36 pm NE 4.1 11.1----30.01- 23.5 29.3----
2024-03-02 04:30 pm NE 8.0 11.1----30.01- 23.4 29.3----
2024-03-02 04:24 pm NE 5.1 9.9----30.01- 23.4 29.3----
2024-03-02 04:18 pmNNE 8.0 12.0----30.01- 23.4 29.3----
2024-03-02 04:12 pm NE 8.9 15.0----30.01- 23.2 29.3----
2024-03-02 04:06 pm NE 9.9 18.1----30.01- 23.2 29.3----
2024-03-02 04:00 pm NE 13.0 18.1----30.01-0.02 22.6 29.3----
2024-03-02 03:54 pm NE 8.9 15.0----30.01- 23.2 29.3----
2024-03-02 03:48 pm NE 11.1 15.9----30.01- 23.0 29.3----
2024-03-02 03:42 pm NE 9.9 18.1----30.01- 23.0 29.3----
2024-03-02 03:36 pm NE 13.0 18.1----30.01- 22.8 29.3----
2024-03-02 03:30 pm NE 13.0 15.9----30.01- 22.6 29.3----
2024-03-02 03:24 pm NE 13.0 15.9----30.02- 22.6 29.3----
2024-03-02 03:18 pm NE 12.0 15.9----30.02- 22.8 29.3----
2024-03-02 03:12 pm NE 11.1 15.9----30.02- 22.8 29.3----
2024-03-02 03:06 pm NE 14.0 19.0----30.02- 22.5 29.3----
2024-03-02 03:00 pm NE 14.0 18.1----30.02-0.02 22.3 29.3----
2024-03-02 02:54 pmNNE 11.1 14.0----30.03- 22.3 29.3----
2024-03-02 02:48 pmNNE 8.9 17.1----30.03-- 29.3----
2024-03-02 02:42 pm NE 12.0 14.0----30.02-- 29.3----
2024-03-02 02:36 pm NE 8.9 19.0----30.03-- 29.3----
2024-03-02 02:30 pm NE 14.0 15.9----30.02- 21.9 29.3----
2024-03-02 02:24 pm NE 12.0 17.1----30.02- 22.1 29.3----
2024-03-02 02:18 pmENE 11.1 17.1----30.02-- 29.3----
2024-03-02 02:12 pm NE 15.0 19.0----30.02-- 29.3----
2024-03-02 02:00 pm NE 12.0 17.1----30.03- 21.7 29.3----
2024-03-02 01:54 pm NE 12.0 21.0----30.03- 21.6 29.3----
2024-03-02 01:48 pm NE 11.1 15.9----30.03- 21.6 29.3----
2024-03-02 01:42 pm NE 13.0 20.0----30.03- 21.4 29.3----
2024-03-02 01:36 pm NE 9.9 19.0----30.03- 21.7 29.3----
2024-03-02 01:30 pm NE 15.0 20.0----30.03-- 29.3----
2024-03-02 01:24 pmENE 12.0 18.1----30.03-- 29.3----
2024-03-02 01:18 pm NE 15.9 22.0----30.03-- 29.3----
2024-03-02 01:12 pm NE 11.1 22.0----30.03-- 29.3----
2024-03-02 01:06 pm NE 13.0 22.0----30.03-- 29.3----
2024-03-02 01:00 pm NE 12.0 22.9----30.03+0.00 20.8 29.1----
2024-03-02 12:54 pmENE 14.0 22.0----30.03- 20.7 29.1----
2024-03-02 12:48 pm NE 19.0 25.1----30.03- 20.5 29.1----
2024-03-02 12:42 pmENE 15.0 20.0----30.03- 20.1 29.1----
2024-03-02 12:36 pm NE 15.0 22.9----30.04- 20.3 29.1----
2024-03-02 12:30 pmENE 15.0 20.0----30.04- 20.1-----
2024-03-02 12:24 pm NE 15.9 19.0----30.04- 20.3-----
2024-03-02 12:18 pm NE 18.1 21.0----30.04- 19.9 29.1----
2024-03-02 12:12 pm NE 14.0 19.0----30.04- 19.9 29.1----
2024-03-02 12:06 pmENE 15.9 21.0----30.04- 19.8 29.1----
2024-03-02 12:00 pm NE 13.0 22.9----30.04+0.02 19.9 29.1----
2024-03-02 11:54 am NE 15.9 22.0----30.04- 19.6 29.1----
2024-03-02 11:48 am NE 15.0 21.0----30.03-- 29.1----
2024-03-02 11:42 am NE 12.0 21.0----30.04-- 29.1----
2024-03-02 11:36 am NE 15.0 19.0----30.04-- 29.1----
2024-03-02 11:30 am NE 14.0 19.0----30.04- 19.8 29.1----
2024-03-02 11:24 am NE 15.9 21.0----30.04- 19.8 29.1----
2024-03-02 11:18 am NE 15.0 24.1----30.04- 19.6 29.1----
2024-03-02 11:12 amNNE 17.1 22.9----30.03- 19.2 29.1----
2024-03-02 11:06 amNNE 17.1 22.9----30.04- 19.2 29.1----
2024-03-02 11:00 am--------- 19.2-----
2024-03-02 10:54 am--------- 19.0-----
2024-03-02 10:48 amNNE 15.0 20.0----30.04- 18.7 29.1----
2024-03-02 10:42 amNNE 12.0 19.0----30.04- 18.9 29.1----
2024-03-02 10:36 amNNE 13.0 18.1----30.04- 18.7 29.1----
2024-03-02 10:30 amNNE 12.0 17.1----30.04- 18.7 29.1----
2024-03-02 10:24 amNNE 13.0 21.0----30.04- 18.5 29.1----
2024-03-02 10:18 amNNE 12.0 18.1----30.04- 18.5 29.1----
2024-03-02 10:12 amNNE 15.0 19.0----30.04- 18.1 29.1----
2024-03-02 10:06 amNNE 12.0 15.9----30.04- 18.3 29.1----
2024-03-02 10:00 amNNE 8.9 14.0----30.03+0.02 18.1 29.1----
2024-03-02 09:54 amNNE 11.1 18.1----30.03- 18.1 29.1----
2024-03-02 09:48 am NE 14.0 18.1----30.03- 18.0 29.1----
2024-03-02 09:42 am NE 14.0 19.0----30.03- 18.1 29.1----
2024-03-02 09:36 amNNE 13.0 21.0----30.03- 18.0 29.1----
2024-03-02 09:30 am NE 11.1 18.1----30.03- 18.0 29.1----
2024-03-02 09:24 amNNE 9.9 12.0----30.03- 18.0 29.1----
2024-03-02 09:18 am NE 8.0 14.0----30.03- 18.0 29.1----
2024-03-02 09:12 am NE 11.1 17.1----30.02- 18.0 29.1----
2024-03-02 09:06 am NE 12.0 19.0----30.02- 17.8 29.1----
2024-03-02 09:00 am NE 8.0 19.0----30.02+0.00 17.8 29.1----
2024-03-02 08:54 am NE 12.0 22.0----30.02- 18.0 29.1----
2024-03-02 08:48 am NE 15.9 21.0----30.01- 17.8 29.1----
2024-03-02 08:42 amNNE 15.0 19.0----30.01- 18.0 29.1----
2024-03-02 08:36 amNNE 13.0 21.0----30.01- 18.0 29.1----
2024-03-02 08:30 am NE 15.0 20.0----30.01- 17.8 29.1----
2024-03-02 08:24 am NE 13.0 24.1----30.01- 17.6 29.1----
2024-03-02 08:18 amNNE 11.1 17.1----30.01- 17.6 29.1----
2024-03-02 08:12 amNNE 14.0 22.9----30.02- 17.8 29.1----
2024-03-02 08:06 am NE 14.0 22.0----30.02- 17.8 29.1----
2024-03-02 08:00 am NE 8.9 17.1----30.02+0.01 17.6 29.1----
2024-03-02 07:54 am NE 12.0 19.0----30.02- 17.6 29.1----
2024-03-02 07:48 amNNE 14.0 19.0----30.02- 17.8 29.1----
2024-03-02 07:42 amNNE 14.0 20.0----30.02- 17.8 29.1----
2024-03-02 07:36 amNNE 14.0 20.0----30.02- 17.8 29.1----
2024-03-02 07:30 am NE 9.9 15.9----30.02- 17.6 29.1----
2024-03-02 07:24 am NE 14.0 21.0----30.02- 17.6 29.1----
2024-03-02 07:18 am NE 11.1 17.1----30.02- 17.2 29.3----
2024-03-02 07:12 am NE 12.0 22.0----30.02- 17.1 29.3----
2024-03-02 07:06 am NE 14.0 19.0----30.02- 17.2 29.3----
2024-03-02 07:00 am NE 13.0 18.1----30.02+0.02 17.4 29.3----
2024-03-02 06:54 am NE 12.0 17.1----30.02- 17.2 29.3----
2024-03-02 06:48 am NE 12.0 19.0----30.02- 17.1 29.3----
2024-03-02 06:42 am NE 13.0 21.0----30.01- 17.1 29.3----
2024-03-02 06:36 am NE 13.0 18.1----30.01- 17.1 29.3----
2024-03-02 06:30 am NE 14.0 20.0----30.02-- 29.3----
2024-03-02 06:24 am NE 9.9 15.0----30.02-- 29.3----
2024-03-02 06:18 am NE 9.9 14.0----30.02- 16.9 29.3----
2024-03-02 06:12 am NE 9.9 15.0----30.03- 17.1 29.3----
2024-03-02 06:06 amENE 7.0 12.0----30.03- 17.1 29.3----
2024-03-02 06:00 am NE 8.9 13.0----30.02+0.01 17.1 29.3----
2024-03-02 05:54 amENE 7.0 13.0----30.02- 17.1 29.3----
2024-03-02 05:48 am NE 6.0 12.0----30.03- 17.1 29.3----
2024-03-02 05:42 amENE 8.0 11.1----30.02- 17.1 29.3----
2024-03-02 05:36 am NE 8.9 15.9----30.03- 17.1 29.3----
2024-03-02 05:30 amNNE 8.0 13.0----30.02- 17.4 29.3----
2024-03-02 05:24 am NE 12.0 20.0----30.02- 17.4 29.3----
2024-03-02 05:18 amNNE 14.0 21.0----30.02- 17.6 29.3----
2024-03-02 05:12 amNNE 9.9 17.1----30.02- 17.4 29.3----
2024-03-02 05:06 amNNE 9.9 19.0----30.01- 17.4 29.3----
2024-03-02 05:00 amNNE 11.1 15.9----30.01+0.02 17.4 29.3----
2024-03-02 04:54 amNNE 12.0 19.0----30.01- 17.4 29.3----
2024-03-02 04:48 amNNE 14.0 20.0----30.01- 17.2 29.3----
2024-03-02 04:42 amNNE 15.0 21.0----30.01- 17.4 29.3----
2024-03-02 04:36 amNNE 14.0 21.0----30.01- 17.2 29.3----
2024-03-02 04:30 amNNE 13.0 21.0----30.01- 17.1 29.3----
2024-03-02 04:24 am NE 15.9 22.9----30.01- 17.1 29.3----
2024-03-02 04:18 am NE 11.1 21.0----30.01- 17.1 29.3----
2024-03-02 04:12 am NE 17.1 22.9----30.00- 17.2 29.3----
2024-03-02 04:06 am NE 19.0 29.9----30.00- 17.2 29.3----
2024-03-02 04:00 am NE 17.1 24.1----30.00+0.02 17.2 29.3----
2024-03-02 03:54 am NE 15.0 25.1----30.00- 17.1 29.3----
2024-03-02 03:48 am NE 18.1 25.1----30.00-- 29.3----
2024-03-02 03:42 am NE 15.9 22.0----30.00-- 29.3----
2024-03-02 03:36 am NE 12.0 21.0----30.01-- 29.3----
2024-03-02 03:30 amNNE 13.0 21.0----30.01- 16.9 29.3----
2024-03-02 03:24 amNNE 15.9 22.0----30.01- 17.1 29.3----
2024-03-02 03:18 am N 14.0 20.0----30.02- 17.1 29.3----
2024-03-02 03:12 amNNE 13.0 20.0----30.02- 17.1 29.3----
2024-03-02 03:06 amNNE 11.1 15.9----30.01- 17.1 29.3----
2024-03-02 03:00 amNNE 14.0 20.0----30.01+0.02 17.1 29.3----
2024-03-02 02:54 amNNE 12.0 18.1----30.01- 17.2 29.3----
2024-03-02 02:48 amNNE 13.0 19.0----30.01- 17.1 29.3----
2024-03-02 02:42 amNNE 12.0 22.0----30.01- 17.1 29.3----
2024-03-02 02:36 amNNE 13.0 21.0----30.01- 17.1 29.3----
2024-03-02 02:30 am-------30.00-------
2024-03-02 02:24 am-------30.00-------
2024-03-02 02:18 am NE 17.1 25.1----30.00- 16.9 29.3----
2024-03-02 02:12 am NE 21.0 28.0----30.00- 17.2 29.3----
2024-03-02 02:06 amNNE 18.1 27.0----30.00- 17.2 29.3----
2024-03-02 02:00 amNNE 20.0 27.0----29.99+0.02- 29.3----
2024-03-02 01:54 amNNE 15.9 24.1----30.00-- 29.3----